Regional Weather Roundup
Issued by NWS

Home | Current Version | Previous Version | Graphics & Text | Print | Product List | Glossary On
Versions: 1 2 3 4 5 6 7 8 9 10 11 12 13 14 15 16 17 18 19 20 21 22 23 24 25 26 27 28 29 30 31 32 33 34 35 36 37 38 39 40 41 42 43 44 45 46 47 48 49 50
000
ASUS43 KMPX 220301
RWRMN
WEATHER ROUNDUP FOR MINNESOTA
NATIONAL WEATHER SERVICE TWIN CITIES/CHANHASSEN MN
1000 PM CDT TUE MAR 21 2017


NOTE: "FAIR" INDICATES FEW OR NO CLOUDS BELOW 12,000 FEET WITH NO
SIGNIFICANT WEATHER AND/OR OBSTRUCTIONS TO VISIBILITY. N/A MEANS
CURRENT SKY AND/OR WEATHER CONDITIONS ARE NOT AVAILABLE.

MNZ060>063-068>070-220400-
   Twin Cities Metro

CITY           SKY/WX    TMP DP  RH WIND       PRES   REMARKS
TWIN CITIES    CLEAR     28   4  35 N10       30.52R WCI  19
ST PAUL        CLEAR     27   7  42 N7        30.53R WCI  19
CRYSTAL        CLEAR     25   6  44 N5        30.52R WCI  19
BLAINE         CLEAR     27   7  43 N6        30.52R WCI  20
LAKEVILLE      CLEAR     27  10  50 N5        30.51R WCI  21
EDEN PRAIRIE   CLEAR     28   8  43 N7        30.50R WCI  21
SOUTH ST PAUL  CLEAR     29   7  38 N7        30.52R WCI  22
LAKE ELMO      FAIR      28   7  40 N5        30.52R WCI  23
$$
MNZ001>005-007-008-013>017-022>024-027-028-220400-
   Northwest Minnesota

CITY           SKY/WX    TMP DP  RH WIND       PRES   REMARKS
BEMIDJI        CLEAR     15   3  59 NE5       30.53S WCI   8
HALLOCK        CLEAR     18   3  53 NE6       30.59R WCI   9
ROSEAU         CLEAR     19  10  68 NE5       30.57S WCI  13
WARROAD        CLEAR     18  10  73 CALM      30.57S
THIEF RVR FALL CLEAR     20   7  57 N6        30.56S WCI  12
CROOKSTON      CLEAR     21  12  68 N6        30.59R WCI  14
FOSSTON        CLEAR     18   9  68 N7        30.54S WCI   8
DETROIT LAKES  CLOUDY    21  14  73 CALM      30.53S
MOORHEAD       CLEAR     21  16  79 N8        30.57S WCI  12
PARK RAPIDS    CLEAR     21  -1  38 CALM      30.51R
MAHNOMEN       FAIR      19  11  71 NE5       30.54R WCI  12
$$
MNZ006-009>011-018-025>026-220400-
   North Central Minnesota

CITY           SKY/WX    TMP DP  RH WIND       PRES   REMARKS
BAUDETTE       CLEAR     14   5  67 CALM      30.54S
FLAG ISLAND    CLEAR     18   1  49 CALM      30.56R
INTL FALLS     CLEAR     17   0  47 NW3       30.55R
WASKISH        CLEAR     16   1  53 CALM      30.55S
BIG FORK       CLEAR     18   0  45 CALM      30.53R
LONGVILLE      CLEAR     19   1  45 CALM      30.53R
GRAND RAPIDS   CLEAR     19   3  49 N3        30.54R
CRANE LAKE     CLEAR     10   3  72 CALM      30.56S
ORR            CLEAR     12  -2  52 CALM      30.50S
COOK           CLEAR     16   0  48 CALM      30.53R
WALKER         FAIR      18  -1  43 N3        30.52S
$$
MNZ012-019>021-037-220400-
   Northeast Minnesota

CITY           SKY/WX    TMP DP  RH WIND       PRES   REMARKS
DULUTH         CLEAR     20   3  48 N6        30.49R WCI  12
ELY            CLEAR     16  -6  38 CALM      30.51R
HIBBING        CLEAR     17  -1  45 N5        30.51R WCI  10
EVELETH        CLEAR     20  -8  28 N6        30.51S WCI  12
DULUTH HARBOR  CLEAR     27   7  43 CALM      30.55R
TWO HARBORS    CLEAR     23   3  42 CALM      30.50R
SILVER BAY     CLEAR     19   1  45 CALM      30.50R
GRAND MARAIS     N/A     21  -1  38 CALM      30.55R
G MARAIS ARPRT CLEAR     12  -8  40 NW10G16   30.45R WCI  -1
$$
MNZ029>031-032-039>041-046>048-054>057-064-220400-
   West Central Minnesota

CITY           SKY/WX    TMP DP  RH WIND       PRES   REMARKS
FERGUS FALLS   CLEAR     19  10  68 N3        30.58R
WHEATON        CLEAR     21  16  79 N5        30.56S WCI  15
MORRIS         CLEAR     21  12  68 N8        30.52S WCI  12
ALEXANDRIA     CLEAR     23   6  48 NE8       30.52R WCI  14
ELBOW LAKE     FAIR      20  12  72 N5        30.53S WCI  14
WADENA         CLOUDY    19   1  45 CALM      30.53R
GLENWOOD       CLEAR     21  10  63 NE7       30.52R WCI  13
APPLETON       CLEAR     25  16  68 CALM      30.53R
BENSON         CLEAR     23  12  63 NE5       30.54S WCI  17
ORTONVILLE     CLEAR     21  16  79 N7        30.53S WCI  13
MADISON        CLEAR     27  18  69 N6        30.53S WCI  20
WILLMAR        FAIR      27  14  59 NE6       30.53R WCI  20
$$
MNZ033>034-036-042>043-049>051-058-059-220400-
   Central Minnesota

CITY           SKY/WX    TMP DP  RH WIND       PRES   REMARKS
ST CLOUD       CLEAR     22  12  65 NW6       30.53R WCI  14
SAUK CENTRE    FAIR      23   7  49 NE6       30.53R WCI  16
PAYNESVILLE      N/A     24   6  46 NE6       30.53R WCI  17
AITKIN         CLEAR     21   3  45 N5        30.51R WCI  15
PINE RIVER     CLEAR     18   9  68 CALM      30.55R
BRAINERD       CLEAR     19   3  49 N5        30.53R WCI  12
STAPLES        CLOUDY    19   1  45 CALM      30.53R
LONG PRAIRIE   FAIR      21   5  49 N5        30.53R WCI  15
LITTLE FALLS   CLEAR     23   5  46 CALM      30.54R
LITCHFIELD     CLEAR     27  10  50 NE6       30.53R WCI  20
BUFFALO        CLEAR     26   6  43 N8        30.53S WCI  17
MAPLE LAKE     CLEAR     26  10  52 N5        30.54R WCI  20
HUTCHINSON     CLEAR     28  10  48 N9        30.53R WCI  19
$$
MNZ037-044-045-052-053-220400-
   East Central Minnesota

CITY           SKY/WX    TMP DP  RH WIND       PRES   REMARKS
PRINCETON      CLEAR     25   9  50 NW3       30.53R
MORA           CLEAR     23   5  46 CALM      30.54R
CAMBRIDGE      CLEAR     27  10  50 CALM      30.51R
RUSH CITY      CLEAR     22   7  51 N5        30.53R WCI  16
MOOSE LAKE     CLEAR     21   3  45 N3        30.51R
HINCKLEY       FAIR      25   3  39 N5        30.52R WCI  19
CLOQUET        CLEAR     19  -2  38 CALM      30.51R
MCGREGOR       CLEAR     23   3  42 N5        30.53R WCI  17
$$
MNZ071>073-080-081-089-090-097-098-220400-
   Southwest Minnesota

CITY           SKY/WX    TMP DP  RH WIND       PRES   REMARKS
MONTEVIDEO     CLEAR     25  18  74 NE8       30.54R WCI  16
GRANITE FALLS  CLEAR     27  19  70 NW6       30.54R WCI  20
CANBY          CLEAR     26  19  77 CALM      30.53S
MARSHALL       CLEAR     25  20  81 NW6       30.52R WCI  18
REDWOOD FALLS  CLEAR     29  12  49 NE6       30.51R WCI  23
OLIVIA         CLEAR     28  14  54 NE6       30.51R WCI  22
PIPESTONE      CLEAR     27  16  63 NE9       30.47R WCI  17
WINDOM         CLEAR     27  19  74 N7        30.48R WCI  19
WORTHINGTON    CLEAR     27  21  78 N12       30.47R WCI  17
JACKSON        CLEAR     30  21  69 NE9       30.47R WCI  22
TRACY          CLEAR     28  22  78 N8        30.50R WCI  19
SLAYTON        CLEAR     25  19  78 N9        30.48R WCI  16
$$
MNZ065>067-074>077-082>085-091>093-220400-
   South Central Minnesota

CITY           SKY/WX    TMP DP  RH WIND       PRES   REMARKS
MANKATO        CLEAR     27  14  58 N8        30.51  WCI  19
NEW ULM        CLEAR     27  10  50 NE6       30.51R WCI  20
ST JAMES       CLEAR     28  19  69 N8        30.51R WCI  20
GLENCOE        CLEAR     27  14  59 N5        30.52R WCI  21
FARIBAULT      PTCLDY    27  14  59 N5        30.50R WCI  21
OWATONNA       CLEAR     28  10  47 N6        30.49R WCI  22
WASECA         CLEAR     28  14  54 N8        30.50R WCI  20
ALBERT LEA     CLEAR     28  16  59 N8        30.47R WCI  20
$$
MNZ078>079-086>088-094>096-220400-
   Southeast Minnesota

CITY           SKY/WX    TMP DP  RH WIND       PRES   REMARKS
ROCHESTER      CLEAR     27  12  53 N9        30.46R WCI  18
RED WING       CLEAR     28   7  40 N3        30.50R
STANTON        CLEAR     29  16  57 N6        30.49R WCI  23
DODGE CENTER   PTCLDY    27  16  63 N9        30.47R WCI  17
WINONA         CLEAR     32  10  40 N6        30.50R WCI  26
AUSTIN         CLEAR     28  16  59 N8        30.46R WCI  20
PRESTON        CLEAR     28  14  56 N10       30.45R WCI  18
$$
ABBREVIATIONS USED IN REMARKS
   TC - TEMPERATURES IN CELSIUS
  WCI - WIND CHILL INDEX
   HX - HEAT INDEX
  VSB - VISIBILITY
$$




USA.gov is the U.S. government's official web portal to all federal, state and local government web resources and services.